Voltar ao catálogo

KUIPER-00071

AtivoComunicaçõesLEO
NORAD 64818·PAYLOAD·🇺🇸 United States

Lançado Jul 16, 2025 de Cape Canaveral Space Force Station

Loading…

Próximas Passagens (próximas 24 horas)

TLE

AtualizadoSource: CelesTrak SupGP

Época: Sep 14, 2026, 21:59 UTC

1 64818C 25151C   26257.91609954 -.00000653  00000+0 -85443-4 0  2576
2 64818  51.9000 186.3409 0000759  94.9251 125.9506 14.79929544    19

Acompanhe KUIPER-00071 em tempo real com AllMySat

Download on the App Store